EN

Hourly Weather Bolshoy Ray

Today, 16 May, Sunday

Time Temperature Precipitation Wind Pressure Humidity
00:00 +11°C° 0 mm 3 mps 739 mmHg 96%
01:00 +10°C° 0 mm 3 mps 739 mmHg 96%
02:00 +10°C° 0 mm 3 mps 739 mmHg 96%
03:00 +10°C° 0 mm 3 mps 739 mmHg 97%
04:00 +10°C° 0 mm 3 mps 740 mmHg 97%
05:00 +10°C° 0 mm 2 mps 740 mmHg 97%
06:00 +12°C° 0 mm 3 mps 740 mmHg 93%
07:00 +13°C° 0 mm 3 mps 741 mmHg 88%
08:00 +16°C° 0 mm 3 mps 741 mmHg 84%
09:00 +17°C° 0 mm 3 mps 741 mmHg 78%
10:00 +18°C° 0 mm 3 mps 741 mmHg 72%
11:00 +20°C° 0 mm 3 mps 741 mmHg 66%
12:00 +20°C° 0.2 mm 3 mps 742 mmHg 65%
13:00 +20°C° 0.2 mm 3 mps 742 mmHg 63%
14:00 +20°C° 0.2 mm 3 mps 742 mmHg 62%
15:00 +20°C° 0.1 mm 2 mps 742 mmHg 63%
16:00 +20°C° 0.1 mm 2 mps 742 mmHg 65%
17:00 +20°C° 0.1 mm 2 mps 742 mmHg 67%
18:00 +19°C° 0.1 mm 2 mps 742 mmHg 72%
19:00 +17°C° 0.1 mm 2 mps 742 mmHg 78%
20:00 +15°C° 0.1 mm 2 mps 742 mmHg 84%
21:00 +15°C° 0 mm 2 mps 741 mmHg 85%
22:00 +14°C° 0 mm 2 mps 741 mmHg 87%
23:00 +13°C° 0 mm 2 mps 741 mmHg 88%

Tomorrow, 17 May, Monday

Time Temperature Precipitation Wind Pressure Humidity
00:00 +13°C° 0 mm 2 mps 741 mmHg 89%
01:00 +13°C° 0 mm 2 mps 741 mmHg 90%
02:00 +13°C° 0 mm 2 mps 741 mmHg 91%
03:00 +12°C° 0 mm 3 mps 741 mmHg 91%
04:00 +12°C° 0 mm 3 mps 741 mmHg 91%
05:00 +12°C° 0 mm 3 mps 741 mmHg 91%
06:00 +13°C° 0 mm 3 mps 741 mmHg 87%
07:00 +15°C° 0 mm 4 mps 741 mmHg 83%
08:00 +17°C° 0 mm 4 mps 741 mmHg 79%
09:00 +19°C° 0 mm 4 mps 740 mmHg 75%
10:00 +20°C° 0 mm 4 mps 740 mmHg 72%
11:00 +21°C° 0 mm 4 mps 739 mmHg 68%
12:00 +22°C° 0 mm 4 mps 739 mmHg 66%
13:00 +23°C° 0 mm 5 mps 738 mmHg 63%
14:00 +25°C° 0 mm 5 mps 738 mmHg 61%
15:00 +25°C° 0.1 mm 5 mps 737 mmHg 63%
16:00 +25°C° 0.1 mm 5 mps 736 mmHg 65%
17:00 +25°C° 0.1 mm 4 mps 736 mmHg 67%
18:00 +22°C° 0.1 mm 4 mps 736 mmHg 73%
19:00 +21°C° 0.1 mm 4 mps 735 mmHg 78%
20:00 +19°C° 0.1 mm 4 mps 735 mmHg 84%
21:00 +18°C° 0 mm 4 mps 735 mmHg 86%
22:00 +18°C° 0 mm 4 mps 735 mmHg 89%
23:00 +17°C° 0 mm 4 mps 735 mmHg 91%

Day after tomorrow, 18 May, Tuesday

Time Temperature Precipitation Wind Pressure Humidity
00:00 +17°C° 0 mm 4 mps 734 mmHg 92%
01:00 +16°C° 0 mm 5 mps 734 mmHg 93%
02:00 +16°C° 0 mm 5 mps 734 mmHg 94%
03:00 +16°C° 0 mm 5 mps 734 mmHg 94%
04:00 +16°C° 0 mm 5 mps 733 mmHg 94%
05:00 +16°C° 0 mm 6 mps 733 mmHg 93%
06:00 +17°C° 0 mm 6 mps 733 mmHg 90%
07:00 +17°C° 0 mm 7 mps 733 mmHg 86%
08:00 +18°C° 0 mm 7 mps 733 mmHg 82%
09:00 +18°C° 0.1 mm 7 mps 733 mmHg 82%
10:00 +18°C° 0.1 mm 7 mps 733 mmHg 81%
11:00 +18°C° 0.1 mm 7 mps 734 mmHg 81%
12:00 +17°C° 0.3 mm 7 mps 734 mmHg 83%
13:00 +17°C° 0.3 mm 7 mps 734 mmHg 86%
14:00 +17°C° 0.3 mm 7 mps 734 mmHg 88%
15:00 +17°C° 0.2 mm 6 mps 734 mmHg 87%
16:00 +17°C° 0.2 mm 5 mps 734 mmHg 87%
17:00 +16°C° 0.2 mm 5 mps 734 mmHg 86%
18:00 +17°C° 0 mm 4 mps 734 mmHg 89%
19:00 +16°C° 0 mm 3 mps 734 mmHg 91%
20:00 +15°C° 0 mm 2 mps 734 mmHg 93%
21:00 +15°C° 0.7 mm 2 mps 734 mmHg 94%
22:00 +15°C° 0.7 mm 2 mps 734 mmHg 95%
23:00 +15°C° 0.7 mm 1 mps 734 mmHg 96%

19 May, Wednesday

Time Temperature Precipitation Wind Pressure Humidity
00:00 +14°C° 0.1 mm 2 mps 734 mmHg 96%
01:00 +14°C° 0.1 mm 2 mps 734 mmHg 96%
02:00 +13°C° 0.1 mm 2 mps 734 mmHg 96%
03:00 +13°C° 0 mm 2 mps 734 mmHg 97%
04:00 +13°C° 0 mm 2 mps 734 mmHg 97%
05:00 +13°C° 0 mm 2 mps 734 mmHg 97%
06:00 +14°C° 0 mm 2 mps 734 mmHg 95%
07:00 +15°C° 0 mm 2 mps 734 mmHg 94%
08:00 +14°C° 0 mm 3 mps 734 mmHg 92%
09:00 +16°C° 0.1 mm 3 mps 734 mmHg 90%
10:00 +16°C° 0.1 mm 2 mps 734 mmHg 89%
11:00 +17°C° 0.1 mm 2 mps 734 mmHg 87%
12:00 +17°C° 0.6 mm 3 mps 734 mmHg 87%
13:00 +17°C° 0.6 mm 3 mps 734 mmHg 87%
14:00 +17°C° 0.6 mm 4 mps 734 mmHg 86%
15:00 +16°C° 0.2 mm 3 mps 734 mmHg 87%
16:00 +16°C° 0.2 mm 3 mps 734 mmHg 88%
17:00 +16°C° 0.2 mm 3 mps 734 mmHg 88%
18:00 +14°C° 0.1 mm 3 mps 734 mmHg 90%
19:00 +14°C° 0.1 mm 2 mps 734 mmHg 92%
20:00 +14°C° 0.1 mm 2 mps 734 mmHg 94%
21:00 +13°C° 0.2 mm 2 mps 733 mmHg 95%
22:00 +13°C° 0.2 mm 2 mps 733 mmHg 96%
23:00 +12°C° 0.2 mm 3 mps 733 mmHg 98%

20 May, Thursday

Time Temperature Precipitation Wind Pressure Humidity
00:00 +11°C° 0.9 mm 3 mps 733 mmHg 98%
01:00 +11°C° 0.9 mm 3 mps 733 mmHg 97%
02:00 +11°C° 0.9 mm 3 mps 733 mmHg 97%
03:00 +11°C° 0.6 mm 4 mps 733 mmHg 97%
04:00 +9°C° 0.6 mm 5 mps 732 mmHg 96%
05:00 +9°C° 0.6 mm 6 mps 732 mmHg 95%
06:00 +9°C° 1.2 mm 7 mps 733 mmHg 94%
07:00 +7°C° 1.2 mm 8 mps 733 mmHg 94%
08:00 +7°C° 1.2 mm 9 mps 734 mmHg 93%
09:00 +7°C° 1 mm 9 mps 735 mmHg 92%
10:00 +7°C° 1 mm 8 mps 736 mmHg 91%
11:00 +7°C° 1 mm 8 mps 737 mmHg 89%
12:00 +9°C° 0 mm 7 mps 738 mmHg 87%
13:00 +9°C° 0 mm 6 mps 739 mmHg 85%
14:00 +10°C° 0 mm 5 mps 740 mmHg 83%
15:00 +12°C° 0.1 mm 5 mps 740 mmHg 80%
16:00 +13°C° 0.1 mm 5 mps 740 mmHg 77%
17:00 +14°C° 0.1 mm 4 mps 741 mmHg 74%
18:00 +13°C° 0 mm 3 mps 741 mmHg 78%
19:00 +12°C° 0 mm 2 mps 741 mmHg 81%
20:00 +10°C° 0 mm 2 mps 742 mmHg 85%
21:00 +10°C° 0 mm 2 mps 742 mmHg 85%
22:00 +10°C° 0 mm 1 mps 742 mmHg 86%
23:00 +10°C° 0 mm 1 mps 743 mmHg 87%

21 May, Friday

Time Temperature Precipitation Wind Pressure Humidity
00:00 +10°C° 0 mm 1 mps 743 mmHg 86%
01:00 +10°C° 0 mm 1 mps 743 mmHg 86%
02:00 +10°C° 0 mm 1 mps 743 mmHg 85%
03:00 +9°C° 0 mm 2 mps 743 mmHg 86%
04:00 +9°C° 0 mm 2 mps 743 mmHg 86%
05:00 +9°C° 0 mm 2 mps 743 mmHg 87%
06:00 +10°C° 0 mm 2 mps 742 mmHg 82%
07:00 +13°C° 0 mm 2 mps 742 mmHg 78%
08:00 +14°C° 0 mm 2 mps 742 mmHg 74%
09:00 +14°C° 0.1 mm 3 mps 741 mmHg 74%
10:00 +14°C° 0.1 mm 4 mps 741 mmHg 73%
11:00 +14°C° 0.1 mm 5 mps 741 mmHg 73%
12:00 +13°C° 0.6 mm 5 mps 740 mmHg 77%
13:00 +13°C° 0.6 mm 5 mps 739 mmHg 81%
14:00 +12°C° 0.6 mm 5 mps 739 mmHg 85%
15:00 +11°C° 0.8 mm 4 mps 738 mmHg 88%
16:00 +10°C° 0.8 mm 4 mps 738 mmHg 92%
17:00 +8°C° 0.8 mm 4 mps 737 mmHg 95%
18:00 +8°C° 1 mm 4 mps 737 mmHg 95%
19:00 +8°C° 1 mm 4 mps 737 mmHg 95%
20:00 +8°C° 1 mm 4 mps 737 mmHg 95%
21:00 +8°C° 0.2 mm 4 mps 737 mmHg 95%
22:00 +8°C° 0.2 mm 4 mps 738 mmHg 95%
23:00 +9°C° 0.2 mm 3 mps 738 mmHg 95%
Show more

We Need Your Consent

Meteoprog and our Service Providers may store and access personal data such as cookies, device identifiers or other similar technologies on your device and process such data to personalise content and ads, as well as provide social media features and to analyse the traffic.

  • Store and/or access information on your device

    Cookies, device identifiers or other information can be stored or accessed on your device for the purposes indicated above.

  • Personalised ads and content, ad and content measurement, audience insights, and products development

    Ads and content can be personalised based on a profile. More data can be added to better personalise ads and content. Ad and content performance can be measured. Insights about the audience who saw the ads and content can be derived. Such data can be used to develop or improve user’s experience, systems and software.

By clicking ‘I Agree’ you will allow the use of indicated cookies, device identifiers, web beacons or other similar technologies. Your settings can be changed in the browser on your device.

For certain purposes, legitimate interests may be relied on, rather than consent. You can read more about this in our Privacy and Cookie Policy.